Buckeye, AZ

6:52 AM MST on October 21, 2019 (GMT -0700)
Buckeye Municipal

Weather History for KBXK - September, 2019

Change the Weather History Date:

Sunday, September 22, 2019

  Actual Average (WUND) Record (WUND)
Temperature  
Mean Temperature 79 °F -  
Max Temperature 96 °F - - (-1)
Min Temperature 62 °F - - (-1)
Cooling Degree Days 14    
Growing Degree Days 29 (Base 50)    
Moisture  
Dew Point 38 °F    
Average Humidity 22    
Maximum Humidity 44    
Minimum Humidity 11    
Precipitation  
Precipitation 0.00 in - - ()
Sea Level Pressure  
Sea Level Pressure 29.90 in    
Wind  
Wind Speed 4 mph ()    
Max Wind Speed 12 mph    
Max Gust Speed -    
Visibility 10.0 miles    
Events      
Averages and records for this station are not official NWS values.
T = Trace of Precipitation, MM = Missing Value Source: Averaged Metar Reports

Daily Weather History Graph

Daily Weather History Graph

Search for Another Location

Airport or City:

Astronomy

Sep. 22, 2019 Rise Set
Actual Time 6:18 AM MST 6:27 PM MST
Civil Twilight 5:54 AM MST 6:52 PM MST
Nautical Twilight 5:25 AM MST 7:21 PM MST
Astronomical Twilight 4:55 AM MST 7:50 PM MST
Moon No Moon Rise 2:08 PM MST (9/22)
Length of Visible Light 12h 58m
Length of Day
12h 08m
Last Quarter, 43% of the Moon is Illuminated
Sep 22
Last Quarter
Sep 28
New
Oct 5
First Quarter
Oct 13
Full
Oct 21
Last Quarter

Hourly Weather History & Observations

Time (MST) Temp. Heat Index Dew Point Humidity Pressure Visibility Wind Dir Wind Speed Gust Speed Precip Events Conditions
12:15 AM 69.8 °F - 23.0 °F 17% 29.87 in 10.0 mi NNW 8.1 mph - N/A   Clear
12:35 AM 71.6 °F - 24.8 °F 17% 29.87 in 10.0 mi NNW 9.2 mph - N/A   Clear
12:55 AM 73.4 °F - 21.2 °F 14% 29.88 in 10.0 mi North 10.4 mph - N/A   Clear
1:15 AM 73.4 °F - 24.8 °F 16% 29.88 in 10.0 mi ENE 8.1 mph - N/A   Clear
1:35 AM 73.4 °F - 23.0 °F 15% 29.88 in 10.0 mi NNE 5.8 mph - N/A   Clear
1:55 AM 73.4 °F - 24.8 °F 16% 29.88 in 10.0 mi NNE 9.2 mph - N/A   Clear
2:15 AM 71.6 °F - 24.8 °F 17% 29.88 in 10.0 mi North 6.9 mph - N/A   Clear
2:35 AM 69.8 °F - 24.8 °F 18% 29.88 in 10.0 mi North 4.6 mph - N/A   Clear
2:55 AM 69.8 °F - 26.6 °F 20% 29.88 in 10.0 mi Calm Calm - N/A   Clear
3:15 AM 68.0 °F - 32.0 °F 26% 29.88 in 10.0 mi Calm Calm - N/A   Clear
3:35 AM 64.4 °F - 30.2 °F 28% 29.88 in 10.0 mi Calm Calm - N/A   Clear
3:55 AM 66.2 °F - 28.4 °F 24% 29.89 in 10.0 mi Calm Calm - N/A   Clear
4:15 AM 64.4 °F - 30.2 °F 28% 29.89 in 10.0 mi Calm Calm - N/A   Clear
4:35 AM 64.4 °F - 30.2 °F 28% 29.89 in 10.0 mi Calm Calm - N/A   Clear
4:55 AM 64.4 °F - 30.2 °F 28% 29.91 in 10.0 mi WNW 4.6 mph - N/A   Clear
5:15 AM 62.6 °F - 30.2 °F 30% 29.91 in 10.0 mi Calm Calm - N/A   Clear
5:35 AM 64.4 °F - 33.8 °F 32% 29.92 in 10.0 mi Calm Calm - N/A   Clear
5:55 AM 64.4 °F - 32.0 °F 30% 29.92 in 10.0 mi Calm Calm - N/A   Clear
6:15 AM 62.6 °F - 30.2 °F 30% 29.92 in 10.0 mi North 9.2 mph - N/A   Clear
6:35 AM 64.4 °F - 32.0 °F 30% 29.93 in 10.0 mi Variable 4.6 mph - N/A   Clear
6:55 AM 66.2 °F - 32.0 °F 28% 29.94 in 10.0 mi Calm Calm - N/A   Clear
7:15 AM 68.0 °F - 32.0 °F 26% 29.94 in 10.0 mi Calm Calm - N/A   Clear
7:35 AM 68.0 °F - 35.6 °F 30% 29.95 in 10.0 mi Calm Calm - N/A   Clear
7:55 AM 69.8 °F - 32.0 °F 25% 29.96 in 10.0 mi Calm Calm - N/A   Clear
8:15 AM 73.4 °F - 32.0 °F 22% 29.96 in 10.0 mi Calm Calm - N/A   Clear
8:35 AM 73.4 °F - 32.0 °F 22% 29.97 in 10.0 mi Calm Calm - N/A   Clear
8:55 AM 77.0 °F - 30.2 °F 18% 29.97 in 10.0 mi SW 3.5 mph - N/A   Clear
9:15 AM 77.0 °F - 37.4 °F 24% 29.98 in 10.0 mi Calm Calm - N/A   Clear
9:35 AM 80.6 °F - 42.8 °F 26% 29.98 in 10.0 mi SE 4.6 mph - N/A   Clear
9:55 AM 84.2 °F - 33.8 °F 16% 29.98 in 10.0 mi ESE 10.4 mph - N/A   Clear
10:15 AM 86.0 °F - 33.8 °F 15% 29.98 in 10.0 mi ESE 11.5 mph - N/A   Clear
10:35 AM 87.8 °F - 35.6 °F 16% 29.97 in 10.0 mi East 11.5 mph - N/A   Clear
10:55 AM 87.8 °F - 35.6 °F 16% 29.97 in 10.0 mi ESE 11.5 mph - N/A   Clear
11:15 AM 89.6 °F - 35.6 °F 15% 29.97 in 10.0 mi ESE 10.4 mph - N/A   Clear
11:35 AM 89.6 °F - 33.8 °F 14% 29.96 in 10.0 mi ESE 9.2 mph - N/A   Clear
11:55 AM 91.4 °F - 32.0 °F 12% 29.95 in 10.0 mi ESE 9.2 mph - N/A   Clear
12:15 PM 91.4 °F - 30.2 °F 11% 29.95 in 10.0 mi ESE 8.1 mph - N/A   Clear
12:35 PM 91.4 °F - 30.2 °F 11% 29.95 in 10.0 mi SE 4.6 mph - N/A   Clear
12:55 PM 91.4 °F - 32.0 °F 12% 29.94 in 10.0 mi SE 4.6 mph - N/A   Clear
1:15 PM 91.4 °F - 32.0 °F 12% 29.93 in 10.0 mi Variable 4.6 mph - N/A   Clear
1:35 PM 93.2 °F - 32.0 °F 11% 29.92 in 10.0 mi Calm Calm - N/A   Clear
1:55 PM 93.2 °F - 33.8 °F 12% 29.91 in 10.0 mi SE 4.6 mph - N/A   Clear
2:15 PM 93.2 °F - 37.4 °F 14% 29.90 in 10.0 mi Variable 3.5 mph - N/A   Clear
2:35 PM 95.0 °F - 41.0 °F 15% 29.89 in 10.0 mi Calm Calm - N/A   Clear
2:55 PM 95.0 °F - 46.4 °F 19% 29.88 in 10.0 mi Variable 4.6 mph - N/A   Clear
3:15 PM 95.0 °F - 44.6 °F 18% 29.88 in 10.0 mi West 4.6 mph - N/A   Clear
3:35 PM 95.0 °F - 44.6 °F 18% 29.87 in 10.0 mi SSE 6.9 mph - N/A   Clear
3:55 PM 95.0 °F - 42.8 °F 16% 29.86 in 10.0 mi Calm Calm - N/A   Clear
4:15 PM 95.0 °F - 42.8 °F 16% 29.85 in 10.0 mi Calm Calm - N/A   Clear
4:35 PM 96.8 °F - 42.8 °F 16% 29.85 in 10.0 mi Variable 3.5 mph - N/A   Clear
4:55 PM 95.0 °F - 42.8 °F 16% 29.85 in 10.0 mi Calm Calm - N/A   Clear
5:15 PM 95.0 °F - 42.8 °F 16% 29.85 in 10.0 mi Calm Calm - N/A   Clear
5:35 PM 95.0 °F - 44.6 °F 18% 29.85 in 10.0 mi South 3.5 mph - N/A   Clear
5:55 PM 93.2 °F 90.8 °F 53.6 °F 26% 29.84 in 10.0 mi ESE 4.6 mph - N/A   Clear
6:15 PM 91.4 °F - 50.0 °F 24% 29.84 in 10.0 mi Calm Calm - N/A   Clear
6:35 PM 89.6 °F - 51.8 °F 27% 29.84 in 10.0 mi SE 4.6 mph - N/A   Mostly Cloudy
6:55 PM 87.8 °F - 51.8 °F 29% 29.84 in 10.0 mi East 4.6 mph - N/A   Scattered Clouds
7:15 PM 89.6 °F - 48.2 °F 24% 29.84 in 10.0 mi East 5.8 mph - N/A   Clear
7:35 PM 87.8 °F - 48.2 °F 25% 29.85 in 10.0 mi East 4.6 mph - N/A   Partly Cloudy
7:55 PM 86.0 °F - 48.2 °F 27% 29.85 in 10.0 mi Calm Calm - N/A   Partly Cloudy
8:15 PM 84.2 °F - 48.2 °F 29% 29.86 in 10.0 mi NE 3.5 mph - N/A   Clear
8:35 PM 84.2 °F - 48.2 °F 29% 29.87 in 10.0 mi ENE 3.5 mph - N/A   Clear
8:55 PM 84.2 °F - 48.2 °F 29% 29.87 in 10.0 mi NE 3.5 mph - N/A   Clear
9:15 PM 82.4 °F - 48.2 °F 30% 29.88 in 10.0 mi NE 3.5 mph - N/A   Clear
9:35 PM 84.2 °F - 48.2 °F 29% 29.88 in 10.0 mi East 3.5 mph - N/A   Clear
9:55 PM 82.4 °F - 50.0 °F 32% 29.88 in 10.0 mi Calm Calm - N/A   Clear
10:15 PM 82.4 °F - 50.0 °F 32% 29.88 in 10.0 mi East 3.5 mph - N/A   Clear
10:35 PM 82.4 °F - 50.0 °F 32% 29.88 in 10.0 mi ENE 4.6 mph - N/A   Mostly Cloudy
10:55 PM 82.4 °F - 50.0 °F 32% 29.88 in 10.0 mi Calm Calm - N/A   Mostly Cloudy
11:15 PM 82.4 °F - 50.0 °F 32% 29.88 in 10.0 mi SE 3.5 mph - N/A   Mostly Cloudy
11:35 PM 80.6 °F - 51.8 °F 37% 29.89 in 10.0 mi SSE 10.4 mph - N/A   Scattered Clouds
11:55 PM 78.8 °F - 55.4 °F 44% 29.89 in 10.0 mi SSW 5.8 mph - N/A   Clear